Henderson, KY

1:47 AM CDT on September 15, 2019 (GMT -0500)
Henderson City-County

Weather History for KEHR - May, 2019

Change the Weather History Date:

Wednesday, May 1, 2019

  Actual Average Record
Temperature  
Mean Temperature 70 °F -  
Max Temperature 80 °F 74 °F 89 °F (1951)
Min Temperature 60 °F 51 °F 31 °F (1963)
Cooling Degree Days 5    
Growing Degree Days 20 (Base 50)    
Moisture  
Dew Point 62 °F    
Average Humidity 79    
Maximum Humidity 100    
Minimum Humidity 56    
Precipitation  
Precipitation 0.00 in - - ()
Sea Level Pressure  
Sea Level Pressure 30.05 in    
Wind  
Wind Speed 11 mph (SSW)    
Max Wind Speed 23 mph    
Max Gust Speed 30 mph    
Visibility 8 miles    
Events Fog , Rain , Thunderstorm    
Averages and records for this station are not official NWS values.
T = Trace of Precipitation, MM = Missing Value Source: NWS Daily Summary

Daily Weather History Graph

Daily Weather History Graph

Search for Another Location

Airport or City:

Astronomy

May. 01, 2019 Rise Set
Actual Time 5:55 AM CDT 7:41 PM CDT
Civil Twilight 5:26 AM CDT 8:09 PM CDT
Nautical Twilight 4:52 AM CDT 8:43 PM CDT
Astronomical Twilight 4:16 AM CDT 9:20 PM CDT
Moon 4:34 AM CDT (5/1) 4:33 PM CDT (5/1)
Length of Visible Light 14h 42m
Length of Day
13h 45m
Waning Crescent, 10% of the Moon is Illuminated
May 1
Waning Crescent
May 4
New
May 11
First Quarter
May 18
Full
May 26
Last Quarter

Hourly Weather History & Observations

Time (CDT) Temp. Heat Index Dew Point Humidity Pressure Visibility Wind Dir Wind Speed Gust Speed Precip Events Conditions
12:56 AM 72.0 °F - 57.0 °F 59% 30.00 in 10.0 mi South 16.1 mph - N/A   Clear
2:56 AM 71.1 °F - 59.0 °F 66% 29.97 in 10.0 mi South 17.3 mph - N/A   Clear
3:56 AM 70.0 °F - 60.1 °F 71% 29.97 in 10.0 mi South 16.1 mph 21.9 mph N/A   Clear
4:56 AM 69.1 °F - 60.1 °F 73% 29.99 in 10.0 mi South 12.7 mph - N/A   Clear
5:56 AM 69.1 °F - 61.0 °F 75% 30.00 in 10.0 mi SSW 9.2 mph - N/A   Clear
6:56 AM 70.0 °F - 62.1 °F 76% 30.02 in 10.0 mi SSW 11.5 mph - N/A   Partly Cloudy
7:56 AM 72.0 °F - 63.0 °F 73% 30.03 in 10.0 mi SSW 18.4 mph 26.5 mph N/A   Scattered Clouds
8:56 AM 69.1 °F - 63.0 °F 81% 30.04 in 10.0 mi WSW 9.2 mph - N/A   Clear
9:56 AM 73.0 °F - 64.9 °F 76% 30.05 in 10.0 mi SSW 11.5 mph - N/A   Clear
10:56 AM 77.0 °F - 62.1 °F 60% 30.03 in 10.0 mi South 23.0 mph 29.9 mph N/A   Clear
11:56 AM 80.1 °F 81.5 °F 63.0 °F 56% 30.04 in 10.0 mi SSW 23.0 mph 28.8 mph N/A   Clear
12:56 PM 79.0 °F - 62.1 °F 56% 30.05 in 10.0 mi SW 23.0 mph 29.9 mph N/A   Scattered Clouds
1:56 PM 77.0 °F - 64.0 °F 64% 30.06 in 10.0 mi SSW 11.5 mph 19.6 mph N/A   Scattered Clouds
2:56 PM 77.0 °F - 62.1 °F 60% 30.05 in 10.0 mi West 11.5 mph 19.6 mph N/A   Partly Cloudy
3:37 PM 71.6 °F - 62.6 °F 73% 30.03 in 10.0 mi WNW 8.1 mph 18.4 mph N/A Rain , Thunderstorm Light Rain
3:52 PM 71.6 °F - 64.4 °F 78% 30.04 in 10.0 mi Calm Calm - N/A Rain Light Rain
3:56 PM 71.1 °F - 64.0 °F 78% 30.06 in 10.0 mi Calm Calm - N/A Rain Light Rain
4:56 PM 71.1 °F - 64.9 °F 81% 30.06 in 10.0 mi South 5.8 mph - N/A Rain Light Rain
5:56 PM 71.1 °F - 66.0 °F 84% 30.07 in 10.0 mi WNW 3.5 mph - N/A   Mostly Cloudy
6:56 PM 71.1 °F - 64.0 °F 78% 30.06 in 10.0 mi SSW 8.1 mph - N/A   Partly Cloudy
7:56 PM 68.0 °F - 64.0 °F 87% 30.08 in 10.0 mi SSW 4.6 mph - N/A   Clear
8:56 PM 66.0 °F - 63.0 °F 90% 30.10 in 10.0 mi Calm Calm - N/A   Clear
9:56 PM 62.1 °F - 61.0 °F 96% 30.11 in 10.0 mi Calm Calm - N/A   Clear
10:56 PM 61.0 °F - 60.1 °F 97% 30.11 in 2.5 mi SSW 3.5 mph - N/A   Clear
11:03 PM 60.8 °F - 60.8 °F 100% 30.09 in 5.0 mi South 3.5 mph - N/A   Clear
11:46 PM 60.8 °F - 60.8 °F 100% 30.10 in 1.8 mi Calm Calm - N/A   Clear
11:49 PM 60.8 °F - 60.8 °F 100% 30.10 in 0.8 mi Calm Calm - N/A   Clear
11:53 PM 60.8 °F - 60.8 °F 100% 30.10 in 0.2 mi Calm Calm - N/A Fog Fog
11:56 PM 60.1 °F - 60.1 °F 100% 30.12 in 0.2 mi Calm Calm - N/A Fog Fog